Location: Poughquag
(41.6090°N, 73.6820°W)
Time: 22:22:14
(UTC-05:00)

Envisat - Pass Details

Date: 10 October 2024
Orbit: 761 x 763 km, 98.3° (Epoch: 10 November)

Event Time Altitude Azimuth Distance (km) Brightness Sun altitude
Rises 04:22:01 0° 9° (N) 3,235 6.6 -30.3°
Reaches altitude 10° 04:24:21 10° 7° (N) 2,304 5.7 -29.9°
Enters shadow 04:26:59 31° 357° (N) 1,329 4.3 -29.4°
